User: anonymous   Login
Location: Fairmont
(43.6520°N, 94.4610°W)
Time: 12:51:54
(UTC-05:00)
Language:

Cosmos-2242 - Orbit

View from above orbital plane
View from above orbital plane
View from above satellite
View from above satellite

Ground track
Ground track

The orbit data is extracted from the following two-line orbital elements,

1 22626U 93024A   17111.90410812 +.00000391 +00000-0 +40215-4 0  9991
2 22626 082.5199 094.8797 0017839 311.2059 048.7619 14.87640874297481
Epoch (UTC): 21 April 2017 21:41:54
Eccentricity: 0.0017839
inclination: 82.5199°
perigee height: 593 km
apogee height: 618 km
right ascension of ascending node: 94.8797°
argument of perigee: 311.2059°
revolutions per day: 14.87640874
mean anomaly at epoch: 48.7619°
orbit number at epoch: 29748

The dashed part of the orbit path shows where the satellite is in the earth's shadow,  

DLR